Regional Weather Roundup
Issued by NWS

Current Version | Previous Version | Text Only | Print | Product List | Glossary On
Versions: 1 2 3 4 5 6 7 8 9 10 11 12 13 14 15 16 17 18 19 20 21 22 23 24 25 26 27 28 29 30 31 32 33 34 35 36 37 38 39 40 41 42 43 44 45 46 47 48 49 50
000
ASUS46 KSEW 030820
RWRWA

WASHINGTON REGIONAL WEATHER ROUNDUP
NATIONAL WEATHER SERVICE SEATTLE WA
100 AM PDT MON OCT 03 2022

NOTE:"FAIR" INDICATES FEW OR NO CLOUDS BELOW 12,000 FEET WITH NO
SIGNIFICANT WEATHER AND/OR OBSTRUCTIONS TO VISIBILITY.

WAZ507-509-555>559-030900-
SEATTLE, TACOMA, EVERETT, AND VICINITY

CITY           SKY/WX    TMP DP  RH WIND       PRES   REMARKS
EVERETT        CLEAR     60  49  66 CALM      30.05R
BOEING FIELD   CLEAR     59  53  80 CALM      30.03R
RENTON         CLEAR     59  54  83 CALM      30.02R
SEATAC AIRPORT PTCLDY    63  54  72 N3        30.03S
JBLM-MCCHORD   CLEAR     52  52 100 CALM      30.03R
PUYALLUP       DRIZZLE   54  54 100 CALM      30.04R
BREMERTON      CLEAR     52  49  89 CALM      30.04R
JBLM-FT LEWIS  CLEAR     54  49  83 SE6       30.01R
TACOMA NARROWS CLEAR     60  52  74 CALM      30.04R
$$

WAZ001-503-506-510-514-515-030900-
NORTH INTERIOR

CITY           SKY/WX    TMP DP  RH WIND       PRES   REMARKS
BELLINGHAM     CLEAR     54  54 100 CALM      30.03R
FRIDAY HARBOR  CLEAR     52  49  89 CALM      30.04R
EASTSOUND      CLOUDY    54 N/A N/A S3        30.02S
PORT ANGELES   CLEAR     55  49  80 CALM      30.04R
EDIZ HOOK      FAIR      54  52  91 SW5       30.03S
PORT TOWNSEND  CLOUDY    46  45  93 CALM      30.03R
NAS WHIDBEY    CLEAR     53  50  89 CALM      30.07R
ARLINGTON      CLEAR     53  52  96 NW3       30.04S
BURLINGTON     MOCLDY    55  54  94 CALM      30.04R
$$

WAZ020-022-039-040-504-511-512-030900-
SOUTHWEST INTERIOR

CITY           SKY/WX    TMP DP  RH WIND       PRES   REMARKS
SHELTON        CLOUDY    55  55 100 W6        30.02S FOG
OLYMPIA        CLEAR     53  51  93 CALM      30.04R
CHEHALIS       FAIR      55  55 100 CALM      30.05R
KELSO          CLOUDY    57  55  93 NW7       30.05R
VANCOUVER      CLEAR     63  53  70 NW3       30.01R
SCAPPOOSE, OR  CLEAR     57  56  96 CALM      29.99S
PORTLAND, OR   CLEAR     62  55  77 W3        30.00R
$$

WAZ021-516-517-030900-
WASHINGTON COAST

CITY           SKY/WX    TMP DP  RH WIND       PRES   REMARKS
FORKS          CLOUDY    56  56 100 VRB3      30.05R
HOQUIAM        CLOUDY    58  55  90 W3        30.06S
ASTORIA, OR    CLOUDY    55  54  96 SW3       30.06R
$$

WAZ019-023-024-040-567>569-030900-
CASCADE MOUNTAINS AND COLUMBIA GORGE

CITY           SKY/WX    TMP DP  RH WIND       PRES   REMARKS
STAMPEDE PASS  CLEAR     63  42  46 CALM      30.17S
TROUTDALE, OR  CLEAR     60  54  80 CALM      29.99R
HOOD RIVER, OR SUNNY     54  48  82 S3        30.05S
THE DALLES, OR CLEAR     59  47  64 E7        30.03R
$$

WAZ026-027-041>044-520-521-030900-
EAST SLOPES

CITY           SKY/WX    TMP DP  RH WIND       PRES   REMARKS
OMAK           CLEAR     55  43  63 N5        30.05S
WENATCHEE      CLEAR     67  45  45 NW6       30.03R
ELLENSBURG     CLEAR     54  43  66 E3        30.08R
YAKIMA         CLEAR     53  46  77 W7        30.06R
SUNNYSIDE ARPT SUNNY     49  47  94 CALM      30.04S
YAKIMA TC      NOT AVBL
$$

WAZ028-034-035-030900-
COLUMBIA BASIN

CITY           SKY/WX    TMP DP  RH WIND       PRES   REMARKS
EPHRATA        CLEAR     55  46  71 N7        30.04R
MOSES LAKE     CLEAR     53  46  77 N5        30.05R
PASCO          CLEAR     53  50  89 MISG      30.03R
RICHLAND ARPT  SUNNY     58  54  86 S3        30.03S
HERMISTON, OR  CLEAR     53  47  79 E3        30.03R
$$

WAZ036>038-030900-
NORTHEAST WASHINGTON

CITY           SKY/WX    TMP DP  RH WIND       PRES   REMARKS
SPOKANE GEIGER CLEAR     57  46  66 S7        30.10R
SPOKANE FELTS  CLEAR     55  48  77 E5        30.10R
FAIRCHILD AFB  CLEAR     55  46  71 CALM      30.08S
COEURDALENE,ID CLEAR     56  52  86 CALM      30.12R
DEER PARK      CLEAR     45  40  82 CALM      30.10R
$$

WAZ029>033-030900-
SOUTHEAST WASHINGTON

CITY           SKY/WX    TMP DP  RH WIND       PRES   REMARKS
PULLMAN        CLEAR     54  47  77 CALM      30.13S
LEWISTON, ID   CLEAR     62  47  57 CALM      30.09R
WALLA WALLA    CLEAR     62  46  55 S6        30.04R
PENDLETON, OR  CLEAR     58  45  62 SE9       30.06R
$$



USA.gov is the U.S. government's official web portal to all federal, state and local government web resources and services.